Regional Weather Roundup
Issued by NWS

Home | Current Version | Previous Version | Text Only | Print | Product List | Glossary Off
Versions: 1 2 3 4 5 6 7 8 9 10 11 12 13 14 15 16 17 18 19 20 21 22 23 24 25 26 27 28 29 30 31 32 33 34 35 36 37 38 39 40 41 42 43 44 45 46 47 48 49 50

000
ASUS43 KLSX 270307
RWRMO
WEATHER SUMMARY FOR MISSOURI
NATIONAL WEATHER SERVICE SPRINGFIELD MO
1000 PM CDT SUN MAR 26 2017

NOTE: "FAIR" INDICATES FEW OR NO CLOUDS BELOW 12,000 FEET WITH NO
       SIGNIFICANT WEATHER AND/OR OBSTRUCTIONS TO VISIBILITY.
       CURRENT SKY AND/OR WEATHER CONDITIONS ARE NOT AVAILABLE FOR
       CHILLICOTHE AND FARMINGTON.

MOZ001>031-035>038-043-044-053-054-270400-
...NORTHERN AND WESTERN MISSOURI...

CITY           SKY/WX    TMP DP  RH WIND       PRES   REMARKS
KANSAS CTY INT CLOUDY    49  45  86 NE9       29.91F
KANSAS C DTWN  LGT RAIN  50  45  83 NE12      29.89F
LEE`S SUMMIT   LGT RAIN  50  45  83 NE14      29.89F
ST JOSEPH      LGT RAIN  47  44  90 N10       29.93F
CHILLICOTHE      N/A     49  44  83 NW5       29.96F
KIRKSVILLE     CLOUDY    48  44  86 W3        29.96R

$$
MOZ066>068-077>081-088>096-101>105-270400-
...SOUTHWEST MISSOURI...

CITY           SKY/WX    TMP DP  RH WIND       PRES   REMARKS
SPRINGFIELD    CLOUDY    59  50  72 NW8       29.87R
JOPLIN         LGT RAIN  58  55  90 SE24G31   29.82F

$$
MOZ032>034-039>042-045>050-055>058-069>072-270400-
...CENTRAL MISSOURI...

CITY           SKY/WX    TMP DP  RH WIND       PRES   REMARKS
COLUMBIA       CLOUDY    51  48  89 NE8       29.91F
JEFFERSON CITY CLOUDY    57  48  72 NE9       29.91F
ROLLA          MOCLDY    53  48  83 E6        29.90S
SEDALIA        CLOUDY    53  49  86 CALM      29.94R
WHITEMAN AFB   CLOUDY    51  51 100 N5        29.91S
WARRENSBURG    CLOUDY    50  45  81 N3        29.92R
OSAGE BEACH    MOCLDY   N/A N/A N/A N3        29.93R

$$
MOZ051-052-059>065-270400-
...EAST CENTRAL MISSOURI...

CITY           SKY/WX    TMP DP  RH WIND       PRES   REMARKS
ST LOUIS INTL  CLOUDY    54  48  80 E6        29.94F
SPIRIT OF STL  CLOUDY    52  49  89 E5        29.92F
ST CHARLES     CLOUDY    51  50  96 NE5       29.94S

$$
MOZ072>076-082>087-097>100-106>115-270400-
...SOUTH CENTRAL AND SOUTHEAST MISSOURI...

CITY           SKY/WX    TMP DP  RH WIND       PRES   REMARKS
CAPE GIRARDEAU PTCLDY    53  47  79 E5        29.96F
FARMINGTON     PTCLDY    54  47  77 SE3       29.94F
POPLAR BLUFF   CLOUDY    58  53  84 E5        29.93F
WEST PLAINS    PTCLDY    58  48  69 E7        29.90F

$$




USA.gov is the U.S. government's official web portal to all federal, state and local government web resources and services.